Regional Weather Roundup
Issued by NWS

Home | Current Version | Previous Version | Graphics & Text | Print | Product List | Glossary On
Versions: 1 2 3 4 5 6 7 8 9 10 11 12 13 14 15 16 17 18 19 20 21 22 23 24 25 26 27 28 29 30 31 32 33 34 35 36 37 38 39 40 41 42 43 44 45 46 47 48 49 50
000
ASUS43 KBIS 212002
RWRND

NORTH DAKOTA REGIONAL WEATHER ROUNDUP
NATIONAL WEATHER SERVICE BISMARCK ND
300 PM CDT THU SEP 21 2017

NOTE: "FAIR" INDICATES FEW OR NO CLOUDS BELOW 12,000 FEET WITH NO
SIGNIFICANT WEATHER AND/OR OBSTRUCTIONS TO VISIBILITY.


NDZ001>003-009>011-017-212100-
NORTHWEST NORTH DAKOTA

CITY           SKY/WX    TMP DP  RH WIND       PRES   REMARKS
WILLISTON      CLOUDY    57  42  57 NW7       29.76R
MINOT          CLOUDY    70  46  42 VRB3      29.68F
MINOT AFB      MOSUNNY   67  44  43 E7        29.67F
$$

NDZ018>021-031>035-040>046-212100-
SOUTHWEST NORTH DAKOTA

CITY           SKY/WX    TMP DP  RH WIND       PRES   REMARKS
BISMARCK       MOSUNNY   80  54  40 SW12      29.63F
DICKINSON      SUNNY     69  43  38 NW10G20   29.71S
GARRISON         N/A     70  44  39 VRB6      29.67F
HETTINGER ARPT SUNNY     71  38  29 N15       29.71R
$$

NDZ004>008-012>016-024-026-027-054-212100-
NORTHEAST NORTH DAKOTA

CITY           SKY/WX    TMP DP  RH WIND       PRES   REMARKS
GRAND FORKS    MOSUNNY   79  48  33 S17G25    29.71F
GRND FRKS AFB  SUNNY     78  45  30 S18G25    29.71F
DEVILS LAKE    SUNNY     76  53  44 S22G29    29.68F
$$

NDZ022-023-025-028>030-036>039-047>053-212100-
SOUTHEAST NORTH DAKOTA

CITY           SKY/WX    TMP DP  RH WIND       PRES   REMARKS
FARGO          MOSUNNY   80  42  25 SE18G26   29.71F
JAMESTOWN      SUNNY     80  49  33 S17G24    29.66F
$$




USA.gov is the U.S. government's official web portal to all federal, state and local government web resources and services.